"SCLK","SCET","ORBIT_NUMBER","ALTITUDE","LATITUDE_PLANEOGRAPHIC","LATITUDE_PLANETOCENTRIC","LOCAL_TRUE_SOLAR_TIME","WEST_LONGITUDE","X_SUN_DIR_DISTANCE","RHO_PRP_SUN_DISTANCE","SOLAR_ZENITH_ANGLE","ELECTRON_PLASMA_FREQUENCY","FPE_QUALITY","FPP_VERIFICATION","ELECTRON_PLASMA_DENSITY","ELECTRON_CYCLOTRON_PERIOD","FCP_QUALITY","B_MAGNITUDE"
"1/0366502890.18880",2014-12-12T22:21:34.283,13895,1562.00,33.39,33.15,"00:22:43",332.82,-1.360,0.530,158.46,4.65e+01,2,,2.69e+01,2.65e+00,1,1.35e+01
"1/0366502897.54466",2014-12-12T22:21:41.826,13895,1551.00,33.68,33.43,"00:20:32",332.83,-1.350,0.530,158.35,4.62e+01,2,,2.65e+01,2.66e+00,1,1.34e+01
"1/0366502905.24516",2014-12-12T22:21:49.369,13895,1541.00,33.96,33.71,"00:18:22",332.84,-1.350,0.540,158.22,4.46e+01,2,,2.47e+01,2.71e+00,1,1.32e+01
"1/0366502912.60102",2014-12-12T22:21:56.912,13895,1530.00,34.24,34.00,"00:16:12",332.85,-1.340,0.540,158.10,4.56e+01,2,,2.57e+01,2.68e+00,1,1.33e+01
"1/0366502920.30217",2014-12-12T22:22:04.456,13895,1519.00,34.53,34.28,"00:14:02",332.86,-1.340,0.540,157.97,4.79e+01,2,,2.85e+01,2.73e+00,1,1.31e+01
"1/0366502928.00267",2014-12-12T22:22:11.999,13895,1508.00,34.82,34.57,"00:11:52",332.87,-1.340,0.540,157.84,4.87e+01,2,,2.94e+01,2.75e+00,1,1.30e+01
"1/0366502935.35853",2014-12-12T22:22:19.542,13895,1498.00,35.11,34.85,"00:11:59",332.87,-1.330,0.540,157.70,5.27e+01,2,,3.44e+01,2.76e+00,1,1.29e+01
"1/0366502943.05903",2014-12-12T22:22:27.085,13895,1487.00,35.40,35.14,"00:09:49",332.88,-1.330,0.550,157.57,5.32e+01,2,,3.51e+01,2.79e+00,1,1.28e+01
"1/0366502950.41489",2014-12-12T22:22:34.628,13895,1476.00,35.69,35.43,"00:07:39",332.89,-1.320,0.550,157.42,5.30e+01,2,,3.48e+01,2.75e+00,1,1.30e+01
"1/0366502958.11605",2014-12-12T22:22:42.172,13895,1466.00,35.98,35.72,"00:05:29",332.90,-1.320,0.550,157.28,5.70e+01,2,,4.03e+01,2.82e+00,1,1.27e+01
"1/0366502965.47191",2014-12-12T22:22:49.715,13895,1455.00,36.27,36.01,"00:05:36",332.90,-1.320,0.550,157.13,5.62e+01,2,,3.91e+01,2.89e+00,1,1.24e+01
"1/0366502973.17241",2014-12-12T22:22:57.258,13895,1444.00,36.57,36.31,"00:03:26",332.91,-1.310,0.550,156.98,5.95e+01,2,,4.39e+01,2.85e+00,1,1.25e+01
"1/0366502980.52827",2014-12-12T22:23:04.801,13895,1434.00,36.86,36.60,"00:03:33",332.91,-1.310,0.560,156.82,5.10e+01,2,,3.23e+01,2.74e+00,2,1.30e+01
"1/0366502988.22877",2014-12-12T22:23:12.344,13895,1423.00,37.16,36.90,"00:01:23",332.92,-1.300,0.560,156.66,5.93e+01,2,,4.36e+01,2.79e+00,1,1.28e+01
"1/0366502995.58529",2014-12-12T22:23:19.888,13895,1413.00,37.46,37.19,"23:59:13",332.93,-1.300,0.560,156.50,6.00e+01,2,,4.47e+01,2.74e+00,2,1.30e+01
"1/0366503003.28579",2014-12-12T22:23:27.431,13895,1402.00,37.76,37.49,"23:59:20",332.93,-1.290,0.560,156.34,5.64e+01,2,,3.95e+01,2.75e+00,1,1.30e+01
"1/0366503010.64165",2014-12-12T22:23:34.974,13895,1392.00,38.06,37.79,"23:57:10",332.94,-1.290,0.570,156.17,4.35e+01,2,,2.35e+01,2.68e+00,1,1.33e+01
"1/0366503018.34215",2014-12-12T22:23:42.517,13895,1381.00,38.36,38.09,"23:57:17",332.94,-1.280,0.570,156.00,4.31e+01,1,,2.30e+01,2.68e+00,1,1.33e+01
"1/0366503026.04265",2014-12-12T22:23:50.060,13895,1371.00,38.67,38.40,"23:57:25",332.94,-1.280,0.570,155.82,4.40e+01,1,,2.41e+01,2.78e+00,1,1.28e+01
"1/0366503033.39916",2014-12-12T22:23:57.604,13895,1360.00,38.97,38.70,"23:55:14",332.95,-1.270,0.570,155.64,4.22e+01,2,,2.21e+01,2.72e+00,2,1.31e+01
"1/0366503041.09966",2014-12-12T22:24:05.147,13895,1350.00,39.28,39.01,"23:55:22",332.95,-1.270,0.580,155.46,4.29e+01,2,,2.29e+01,2.76e+00,2,1.29e+01
"1/0366503048.45552",2014-12-12T22:24:12.690,13895,1340.00,39.59,39.31,"23:53:12",332.96,-1.270,0.580,155.28,4.40e+01,2,,2.40e+01,2.79e+00,1,1.28e+01
"1/0366503056.15602",2014-12-12T22:24:20.233,13895,1329.00,39.90,39.62,"23:53:19",332.96,-1.260,0.580,155.09,4.25e+01,2,,2.25e+01,2.73e+00,2,1.31e+01
"1/0366503063.51188",2014-12-12T22:24:27.776,13895,1319.00,40.21,39.93,"23:53:26",332.96,-1.260,0.580,154.90,4.38e+01,2,,2.38e+01,2.74e+00,1,1.30e+01
"1/0366503071.21304",2014-12-12T22:24:35.320,13895,1309.00,40.52,40.24,"23:53:34",332.96,-1.250,0.590,154.71,4.64e+01,2,,2.67e+01,2.80e+00,1,1.28e+01
"1/0366503078.56890",2014-12-12T22:24:42.863,13895,1299.00,40.83,40.55,"23:53:41",332.96,-1.250,0.590,154.51,5.14e+01,2,,3.27e+01,2.76e+00,2,1.30e+01
"1/0366503086.26940",2014-12-12T22:24:50.406,13895,1288.00,41.15,40.87,"23:51:31",332.97,-1.240,0.590,154.31,5.18e+01,2,,3.32e+01,2.77e+00,1,1.29e+01
"1/0366503093.62526",2014-12-12T22:24:57.949,13895,1278.00,41.46,41.18,"23:51:38",332.97,-1.240,0.600,154.11,5.56e+01,2,,3.84e+01,2.69e+00,1,1.33e+01
"1/0366503101.32576",2014-12-12T22:25:05.492,13895,1268.00,41.78,41.50,"23:51:45",332.97,-1.230,0.600,153.90,5.52e+01,2,,3.78e+01,2.61e+00,2,1.37e+01
"1/0366503109.02692",2014-12-12T22:25:13.036,13895,1258.00,42.10,41.82,"23:51:53",332.97,-1.230,0.600,153.70,6.09e+01,2,,4.59e+01,2.58e+00,2,1.39e+01
"1/0366503116.38278",2014-12-12T22:25:20.579,13895,1248.00,42.42,42.13,"23:52:00",332.97,-1.220,0.610,153.48,5.54e+01,2,,3.80e+01,2.54e+00,1,1.40e+01
"1/0366503124.08328",2014-12-12T22:25:28.122,13895,1238.00,42.74,42.45,"23:52:07",332.97,-1.220,0.610,153.27,5.35e+01,2,,3.55e+01,2.48e+00,2,1.44e+01
"1/0366503131.43914",2014-12-12T22:25:35.665,13895,1228.00,43.06,42.78,"23:54:32",332.96,-1.210,0.610,153.05,5.53e+01,2,,3.79e+01,2.45e+00,2,1.46e+01
"1/0366503139.13964",2014-12-12T22:25:43.208,13895,1218.00,43.38,43.10,"23:54:40",332.96,-1.210,0.620,152.83,5.36e+01,2,,3.57e+01,2.35e+00,2,1.52e+01
"1/0366503146.49615",2014-12-12T22:25:50.752,13895,1208.00,43.71,43.42,"23:54:47",332.96,-1.200,0.620,152.61,4.91e+01,2,,2.99e+01,2.39e+00,1,1.50e+01
"1/0366503154.19665",2014-12-12T22:25:58.295,13895,1198.00,44.04,43.75,"23:54:54",332.96,-1.200,0.620,152.38,4.70e+01,2,,2.74e+01,2.36e+00,1,1.51e+01
"1/0366503161.55251",2014-12-12T22:26:05.838,13895,1188.00,44.36,44.08,"23:57:19",332.95,-1.190,0.630,152.15,5.25e+01,2,,3.42e+01,2.38e+00,2,1.50e+01
"1/0366503169.25301",2014-12-12T22:26:13.381,13895,1178.00,44.69,44.41,"23:57:26",332.95,-1.190,0.630,151.92,5.63e+01,2,,3.94e+01,2.41e+00,1,1.48e+01
"1/0366503176.60887",2014-12-12T22:26:20.924,13895,1168.00,45.03,44.74,"23:59:51",332.94,-1.180,0.630,151.69,5.83e+01,2,,4.22e+01,2.37e+00,2,1.51e+01
"1/0366503184.31003",2014-12-12T22:26:28.468,13895,1159.00,45.36,45.07,"23:59:59",332.94,-1.180,0.640,151.45,6.06e+01,2,,4.55e+01,2.37e+00,2,1.51e+01
"1/0366503192.01053",2014-12-12T22:26:36.011,13895,1149.00,45.69,45.40,"00:02:23",332.93,-1.170,0.640,151.21,5.70e+01,2,,4.03e+01,2.39e+00,1,1.49e+01
"1/0366503199.36639",2014-12-12T22:26:43.554,13895,1139.00,46.03,45.74,"00:02:31",332.93,-1.170,0.640,150.97,5.49e+01,2,,3.74e+01,2.38e+00,2,1.50e+01
"1/0366503207.06689",2014-12-12T22:26:51.097,13895,1130.00,46.36,46.07,"00:04:56",332.92,-1.160,0.650,150.72,4.80e+01,2,,2.86e+01,2.48e+00,1,1.44e+01
"1/0366503214.42275",2014-12-12T22:26:58.640,13895,1120.00,46.70,46.41,"00:07:21",332.91,-1.160,0.650,150.47,5.42e+01,2,,3.64e+01,2.41e+00,1,1.48e+01
"1/0366503222.12391",2014-12-12T22:27:06.184,13895,1110.00,47.04,46.75,"00:07:28",332.91,-1.150,0.650,150.22,4.40e+01,2,,2.40e+01,2.42e+00,2,1.48e+01
"1/0366503229.47977",2014-12-12T22:27:13.727,13895,1101.00,47.38,47.09,"00:09:53",332.90,-1.150,0.660,149.97,4.82e+01,2,,2.88e+01,2.48e+00,1,1.44e+01
"1/0366503237.18027",2014-12-12T22:27:21.270,13895,1091.00,47.72,47.43,"00:12:18",332.89,-1.140,0.660,149.71,6.47e+01,2,,5.19e+01,2.72e+00,2,1.31e+01
"1/0366503244.53613",2014-12-12T22:27:28.813,13895,1082.00,48.07,47.77,"00:14:42",332.88,-1.130,0.660,149.46,7.89e+01,2,,7.73e+01,2.85e+00,2,1.25e+01
"1/0366503252.23663",2014-12-12T22:27:36.356,13895,1073.00,48.41,48.12,"00:17:07",332.87,-1.130,0.670,149.19,7.46e+01,2,,6.91e+01,2.96e+00,1,1.20e+01
"1/0366503259.59314",2014-12-12T22:27:43.900,13895,1063.00,48.76,48.46,"00:21:50",332.85,-1.120,0.670,148.93,7.68e+01,2,,7.31e+01,2.98e+00,1,1.20e+01
"1/0366503267.29364",2014-12-12T22:27:51.443,13895,1054.00,49.10,48.81,"00:24:14",332.84,-1.120,0.680,148.66,7.85e+01,2,,7.64e+01,3.05e+00,2,1.17e+01
"1/0366503274.64950",2014-12-12T22:27:58.986,13895,1044.00,49.45,49.16,"00:26:39",332.83,-1.110,0.680,148.39,8.95e+01,2,,9.94e+01,,,
"1/0366503282.35000",2014-12-12T22:28:06.529,13895,1035.00,49.80,49.51,"00:29:04",332.82,-1.110,0.680,148.12,9.43e+01,2,,1.10e+02,3.29e+00,1,1.09e+01
"1/0366503290.05050",2014-12-12T22:28:14.072,13895,1026.00,50.16,49.86,"00:33:47",332.80,-1.100,0.690,147.85,8.41e+01,2,,8.77e+01,3.30e+00,1,1.08e+01
"1/0366503297.40702",2014-12-12T22:28:21.616,13895,1017.00,50.51,50.22,"00:36:11",332.79,-1.100,0.690,147.57,7.22e+01,2,,6.47e+01,3.19e+00,1,1.12e+01
"1/0366503305.10752",2014-12-12T22:28:29.159,13895,1008.00,50.86,50.57,"00:40:54",332.77,-1.090,0.690,147.29,7.39e+01,2,,6.77e+01,3.28e+00,2,1.09e+01
"1/0366503312.46338",2014-12-12T22:28:36.702,13895,999.00,51.22,50.93,"00:45:36",332.75,-1.080,0.700,147.01,7.00e+01,2,,6.07e+01,3.19e+00,1,1.12e+01
"1/0366503320.16388",2014-12-12T22:28:44.245,13895,990.00,51.58,51.29,"00:50:18",332.73,-1.080,0.700,146.73,6.98e+01,2,,6.05e+01,3.09e+00,1,1.16e+01
"1/0366503327.52040",2014-12-12T22:28:51.789,13895,981.00,51.94,51.64,"00:55:01",332.71,-1.070,0.710,146.44,6.85e+01,2,,5.82e+01,3.10e+00,1,1.15e+01
"1/0366503335.22090",2014-12-12T22:28:59.332,13895,972.00,52.30,52.01,"00:59:43",332.69,-1.070,0.710,146.15,6.74e+01,2,,5.63e+01,2.98e+00,1,1.20e+01
"1/0366503342.57676",2014-12-12T22:29:06.875,13895,963.00,52.66,52.37,"01:04:25",332.67,-1.060,0.710,145.86,7.16e+01,2,,6.36e+01,3.02e+00,1,1.18e+01
"1/0366503350.27726",2014-12-12T22:29:14.418,13895,954.00,53.02,52.73,"01:09:08",332.65,-1.060,0.720,145.57,7.50e+01,2,,6.97e+01,2.98e+00,1,1.20e+01
"1/0366503357.63312",2014-12-12T22:29:21.961,13895,945.00,53.39,53.10,"01:13:50",332.63,-1.050,0.720,145.27,7.60e+01,2,,7.15e+01,2.98e+00,2,1.20e+01
"1/0366503365.33427",2014-12-12T22:29:29.505,13895,936.00,53.75,53.46,"01:20:50",332.60,-1.040,0.730,144.97,7.73e+01,2,,7.42e+01,2.88e+00,2,1.24e+01
"1/0366503373.03477",2014-12-12T22:29:37.048,13895,928.00,54.12,53.83,"01:27:50",332.57,-1.040,0.730,144.67,8.31e+01,2,,8.57e+01,2.84e+00,2,1.26e+01
"1/0366503380.39063",2014-12-12T22:29:44.591,13895,919.00,54.49,54.20,"01:32:32",332.55,-1.030,0.730,144.37,8.90e+01,2,,9.83e+01,2.74e+00,2,1.30e+01
"1/0366503388.09113",2014-12-12T22:29:52.134,13895,910.00,54.86,54.57,"01:39:32",332.52,-1.030,0.740,144.07,8.89e+01,2,,9.80e+01,2.69e+00,2,1.33e+01
"1/0366503395.44699",2014-12-12T22:29:59.677,13895,902.00,55.23,54.95,"01:46:32",332.49,-1.020,0.740,143.76,8.81e+01,2,,9.63e+01,2.62e+00,2,1.36e+01
"1/0366503403.14815",2014-12-12T22:30:07.221,13895,893.00,55.61,55.32,"01:53:32",332.46,-1.010,0.750,143.45,8.34e+01,2,,8.63e+01,2.52e+00,2,1.42e+01
"1/0366503410.50401",2014-12-12T22:30:14.764,13895,885.00,55.98,55.70,"02:02:49",332.42,-1.010,0.750,143.14,8.48e+01,2,,8.91e+01,2.42e+00,1,1.48e+01
"1/0366503418.20451",2014-12-12T22:30:22.307,13895,876.00,56.36,56.07,"02:09:49",332.39,-1.000,0.750,142.82,8.68e+01,2,,9.34e+01,2.53e+00,1,1.41e+01
"1/0366503425.56037",2014-12-12T22:30:29.850,13895,868.00,56.74,56.45,"02:19:07",332.35,-1.000,0.760,142.50,8.48e+01,2,,8.92e+01,2.48e+00,2,1.44e+01
"1/0366503433.26087",2014-12-12T22:30:37.393,13895,860.00,57.11,56.83,"02:26:06",332.32,-0.990,0.760,142.19,7.85e+01,2,,7.65e+01,2.41e+00,2,1.48e+01
"1/0366503440.61739",2014-12-12T22:30:44.937,13895,852.00,57.50,57.21,"02:35:24",332.28,-0.980,0.770,141.87,7.81e+01,2,,7.57e+01,2.35e+00,2,1.52e+01
"1/0366503448.31789",2014-12-12T22:30:52.480,13895,843.00,57.88,57.60,"02:44:41",332.24,-0.980,0.770,141.54,7.92e+01,2,,7.77e+01,2.35e+00,2,1.52e+01
"1/0366503456.01839",2014-12-12T22:31:00.023,13895,835.00,58.26,57.98,"02:53:59",332.20,-0.970,0.770,141.22,8.44e+01,2,,8.83e+01,2.39e+00,2,1.50e+01
"1/0366503463.37425",2014-12-12T22:31:07.566,13895,827.00,58.64,58.37,"03:05:33",332.15,-0.960,0.780,140.89,8.30e+01,2,,8.54e+01,2.39e+00,2,1.50e+01
"1/0366503471.07475",2014-12-12T22:31:15.109,13895,819.00,59.03,58.75,"03:17:08",332.10,-0.960,0.780,140.56,8.24e+01,2,,8.41e+01,2.40e+00,2,1.49e+01
"1/0366503478.43126",2014-12-12T22:31:22.653,13895,811.00,59.42,59.14,"03:26:26",332.06,-0.950,0.790,140.23,8.00e+01,2,,7.94e+01,2.46e+00,2,1.45e+01
"1/0366503486.13176",2014-12-12T22:31:30.196,13895,803.00,59.81,59.53,"03:38:01",332.01,-0.940,0.790,139.89,8.18e+01,2,,8.30e+01,2.54e+00,1,1.40e+01
"1/0366503493.48762",2014-12-12T22:31:37.739,13895,795.00,60.20,59.92,"03:51:53",331.95,-0.940,0.790,139.56,8.65e+01,2,,9.28e+01,2.51e+00,2,1.42e+01
"1/0366503501.18812",2014-12-12T22:31:45.282,13895,788.00,60.59,60.32,"04:03:28",331.90,-0.930,0.800,139.22,9.27e+01,2,,1.07e+02,2.61e+00,1,1.37e+01
"1/0366503508.54398",2014-12-12T22:31:52.825,13895,780.00,60.98,60.71,"04:17:20",331.84,-0.930,0.800,138.88,9.25e+01,2,,1.06e+02,2.59e+00,2,1.38e+01
"1/0366503516.24514",2014-12-12T22:32:00.369,13895,772.00,61.38,61.11,"04:31:13",331.78,-0.920,0.810,138.54,1.06e+02,2,,1.39e+02,2.78e+00,1,1.29e+01
"1/0366503523.60100",2014-12-12T22:32:07.912,13895,765.00,61.77,61.51,"04:45:05",331.72,-0.910,0.810,138.20,1.03e+02,2,,1.31e+02,,,
"1/0366503531.30150",2014-12-12T22:32:15.455,13895,757.00,62.17,61.90,"05:01:15",331.65,-0.910,0.810,137.85,9.02e+01,2,,1.01e+02,2.77e+00,1,1.29e+01
"1/0366503539.00200",2014-12-12T22:32:22.998,13895,749.00,62.57,62.31,"05:17:25",331.58,-0.900,0.820,137.50,9.70e+01,2,,1.17e+02,2.79e+00,1,1.28e+01
"1/0366503546.35786",2014-12-12T22:32:30.541,13895,742.00,62.97,62.71,"05:33:35",331.51,-0.890,0.820,137.15,1.00e+02,2,,1.25e+02,2.94e+00,1,1.22e+01
"1/0366503554.05902",2014-12-12T22:32:38.085,13895,735.00,63.37,63.11,"05:49:45",331.44,-0.890,0.830,136.80,1.02e+02,2,,1.29e+02,2.94e+00,1,1.22e+01
"1/0366503561.41488",2014-12-12T22:32:45.628,13895,727.00,63.77,63.51,"06:08:12",331.36,-0.880,0.830,136.45,9.67e+01,2,,1.16e+02,,,
"1/0366503569.11538",2014-12-12T22:32:53.171,13895,720.00,64.17,63.92,"06:26:40",331.28,-0.870,0.830,136.09,8.96e+01,2,,9.96e+01,2.81e+00,1,1.27e+01
"1/0366503576.47124",2014-12-12T22:33:00.714,13895,713.00,64.58,64.33,"06:47:24",331.19,-0.870,0.840,135.73,8.82e+01,2,,9.65e+01,2.54e+00,2,1.41e+01
"1/0366503584.17174",2014-12-12T22:33:08.257,13895,706.00,64.98,64.74,"07:08:09",331.10,-0.860,0.840,135.37,9.58e+01,2,,1.14e+02,2.51e+00,1,1.42e+01
"1/0366503591.52825",2014-12-12T22:33:15.801,13895,699.00,65.39,65.15,"07:28:54",331.01,-0.850,0.850,135.01,1.05e+02,2,,1.37e+02,2.56e+00,1,1.39e+01
"1/0366503599.22875",2014-12-12T22:33:23.344,13895,692.00,65.80,65.56,"07:51:57",330.91,-0.840,0.850,134.65,1.13e+02,2,,1.59e+02,2.59e+00,1,1.38e+01
"1/0366503606.58461",2014-12-12T22:33:30.887,13895,685.00,66.21,65.97,"08:14:59",330.81,-0.840,0.850,134.28,1.16e+02,2,,1.66e+02,2.46e+00,1,1.45e+01
"1/0366503614.28511",2014-12-12T22:33:38.430,13895,678.00,66.62,66.38,"08:40:19",330.70,-0.830,0.860,133.91,1.00e+02,2,,1.25e+02,2.23e+00,2,1.60e+01
"1/0366503621.64097",2014-12-12T22:33:45.973,13895,671.00,67.03,66.80,"09:05:39",330.59,-0.820,0.860,133.55,9.70e+01,2,,1.17e+02,2.10e+00,2,1.70e+01
"1/0366503629.34213",2014-12-12T22:33:53.517,13895,664.00,67.45,67.22,"09:33:17",330.47,-0.820,0.870,133.18,1.33e+02,2,,2.19e+02,2.44e+00,2,1.46e+01
"1/0366503637.04263",2014-12-12T22:34:01.060,13895,658.00,67.86,67.63,"10:00:54",330.35,-0.810,0.870,132.80,1.14e+02,2,,1.60e+02,2.46e+00,1,1.45e+01
"1/0366503644.39849",2014-12-12T22:34:08.603,13895,651.00,68.28,68.05,"10:30:49",330.22,-0.800,0.870,132.43,1.26e+02,2,,1.96e+02,2.39e+00,1,1.50e+01
"1/0366503652.09899",2014-12-12T22:34:16.146,13895,645.00,68.69,68.47,"11:03:01",330.08,-0.800,0.880,132.05,1.37e+02,2,,2.32e+02,2.39e+00,1,1.49e+01
"1/0366503659.45485",2014-12-12T22:34:23.689,13895,638.00,69.11,68.89,"11:35:14",329.94,-0.790,0.880,131.67,1.34e+02,2,,2.22e+02,2.46e+00,1,1.45e+01
"1/0366503667.15601",2014-12-12T22:34:31.233,13895,632.00,69.53,69.32,"12:09:44",329.79,-0.780,0.880,131.29,8.88e+01,2,,9.79e+01,2.22e+00,2,1.61e+01
"1/0366503674.51187",2014-12-12T22:34:38.776,13895,626.00,69.95,69.74,"12:46:31",329.63,-0.770,0.890,130.91,1.02e+02,2,,1.28e+02,2.28e+00,1,1.57e+01
"1/0366503682.21237",2014-12-12T22:34:46.319,13895,619.00,70.37,70.16,"13:25:36",329.46,-0.770,0.890,130.53,9.05e+01,2,,1.01e+02,2.32e+00,2,1.54e+01
"1/0366503689.56823",2014-12-12T22:34:53.862,13895,613.00,70.80,70.59,"14:04:41",329.29,-0.760,0.900,130.15,9.45e+01,2,,1.11e+02,2.41e+00,1,1.48e+01
"1/0366503697.26873",2014-12-12T22:35:01.405,13895,607.00,71.22,71.02,"14:48:21",329.10,-0.750,0.900,129.76,1.02e+02,2,,1.29e+02,2.44e+00,1,1.46e+01
"1/0366503704.62524",2014-12-12T22:35:08.949,13895,601.00,71.64,71.45,"15:32:01",328.91,-0.750,0.900,129.37,9.61e+01,2,,1.15e+02,2.35e+00,1,1.52e+01
"1/0366503712.32574",2014-12-12T22:35:16.492,13895,595.00,72.07,71.87,"16:20:16",328.70,-0.740,0.910,128.98,8.82e+01,2,,9.65e+01,2.28e+00,1,1.57e+01
"1/0366503720.02624",2014-12-12T22:35:24.035,13895,589.00,72.50,72.30,"17:10:49",328.48,-0.730,0.910,128.59,8.50e+01,2,,8.96e+01,2.36e+00,1,1.51e+01
"1/0366503727.38210",2014-12-12T22:35:31.578,13895,583.00,72.92,72.74,"18:03:39",328.25,-0.720,0.910,128.20,9.88e+01,2,,1.21e+02,2.50e+00,1,1.43e+01
"1/0366503735.08260",2014-12-12T22:35:39.121,13895,578.00,73.35,73.17,"18:58:47",328.01,-0.720,0.920,127.80,9.68e+01,2,,1.16e+02,2.36e+00,1,1.51e+01
"1/0366503742.43912",2014-12-12T22:35:46.665,13895,572.00,73.78,73.60,"19:58:29",327.75,-0.710,0.920,127.41,1.04e+02,2,,1.34e+02,,,
"1/0366503750.13962",2014-12-12T22:35:54.208,13895,566.00,74.21,74.03,"21:02:47",327.47,-0.700,0.920,127.01,9.65e+01,2,,1.15e+02,2.35e+00,2,1.52e+01
"1/0366503757.49548",2014-12-12T22:36:01.751,13895,561.00,74.64,74.47,"22:09:22",327.18,-0.690,0.930,126.61,1.08e+02,2,,1.45e+02,2.55e+00,1,1.40e+01
"1/0366503765.19598",2014-12-12T22:36:09.294,13895,556.00,75.07,74.90,"23:20:32",326.87,-0.690,0.930,126.21,1.26e+02,2,,1.98e+02,2.67e+00,1,1.34e+01
"1/0366503772.55184",2014-12-12T22:36:16.837,13895,550.00,75.50,75.34,"00:38:35",326.53,-0.680,0.940,125.81,1.53e+02,2,,2.91e+02,2.69e+00,1,1.33e+01
"1/0366503780.25299",2014-12-12T22:36:24.381,13895,545.00,75.94,75.78,"01:58:55",326.18,-0.670,0.940,125.41,1.39e+02,2,,2.41e+02,2.57e+00,1,1.39e+01
"1/0366503787.60886",2014-12-12T22:36:31.924,13895,540.00,76.37,76.21,"03:28:25",325.79,-0.660,0.940,125.00,1.31e+02,2,,2.12e+02,2.44e+00,1,1.46e+01
"1/0366503795.30936",2014-12-12T22:36:39.467,13895,535.00,76.80,76.65,"05:02:30",325.38,-0.660,0.950,124.59,1.28e+02,2,,2.03e+02,2.29e+00,1,1.56e+01
"1/0366503803.00986",2014-12-12T22:36:47.010,13895,530.00,77.23,77.09,"06:43:28",324.94,-0.650,0.950,124.19,1.26e+02,2,,1.96e+02,2.29e+00,2,1.56e+01
"1/0366503810.36572",2014-12-12T22:36:54.553,13895,525.00,77.67,77.53,"08:31:19",324.47,-0.640,0.950,123.78,1.27e+02,2,,2.00e+02,2.15e+00,1,1.66e+01
"1/0366503818.06687",2014-12-12T22:37:02.097,13895,520.00,78.10,77.96,"10:28:19",323.96,-0.630,0.960,123.37,1.24e+02,2,,1.89e+02,2.22e+00,1,1.61e+01
"1/0366503825.42273",2014-12-12T22:37:09.640,13895,515.00,78.53,78.40,"12:34:29",323.41,-0.620,0.960,122.95,1.32e+02,2,,2.16e+02,2.20e+00,1,1.62e+01
"1/0366503833.12323",2014-12-12T22:37:17.183,13895,510.00,78.97,78.84,"14:52:07",322.81,-0.620,0.960,122.54,1.30e+02,2,,2.09e+02,2.07e+00,1,1.73e+01
"1/0366503840.47909",2014-12-12T22:37:24.726,13895,506.00,79.40,79.28,"17:21:13",322.16,-0.610,0.970,122.13,1.15e+02,2,,1.65e+02,1.95e+00,1,1.83e+01
"1/0366503848.17959",2014-12-12T22:37:32.269,13895,501.00,79.83,79.71,"20:04:03",321.45,-0.600,0.970,121.71,1.00e+02,2,,1.25e+02,1.95e+00,2,1.83e+01
"1/0366503855.53611",2014-12-12T22:37:39.813,13895,497.00,80.26,80.15,"23:02:56",320.67,-0.590,0.970,121.29,1.09e+02,2,,1.47e+02,2.01e+00,2,1.78e+01
"1/0366503863.23661",2014-12-12T22:37:47.356,13895,492.00,80.69,80.59,"02:20:10",319.81,-0.590,0.980,120.87,1.06e+02,2,,1.39e+02,2.03e+00,1,1.76e+01
"1/0366503870.59247",2014-12-12T22:37:54.899,13895,488.00,81.12,81.02,"05:55:43",318.87,-0.580,0.980,120.46,1.04e+02,2,,1.34e+02,1.98e+00,2,1.80e+01
"1/0366503878.29297",2014-12-12T22:38:02.442,13895,484.00,81.55,81.45,"09:54:11",317.83,-0.570,0.980,120.03,1.03e+02,2,,1.32e+02,1.96e+00,2,1.82e+01
"1/0366503885.64948",2014-12-12T22:38:09.986,13895,480.00,81.98,81.88,"14:17:52",316.68,-0.560,0.990,119.61,9.27e+01,2,,1.07e+02,1.87e+00,2,1.91e+01
"1/0366503893.34998",2014-12-12T22:38:17.529,13895,476.00,82.40,82.31,"19:13:38",315.39,-0.550,0.990,119.19,9.22e+01,2,,1.05e+02,2.07e+00,2,1.73e+01
"1/0366503901.05048",2014-12-12T22:38:25.072,13895,472.00,82.81,82.73,"00:46:04",313.94,-0.550,0.990,118.76,9.68e+01,2,,1.16e+02,2.20e+00,2,1.62e+01
"1/0366503908.40635",2014-12-12T22:38:32.615,13895,468.00,83.23,83.15,"06:59:46",312.31,-0.540,1.000,118.34,9.41e+01,2,,1.10e+02,2.14e+00,2,1.67e+01
"1/0366503916.10685",2014-12-12T22:38:40.158,13895,464.00,83.64,83.56,"14:03:53",310.46,-0.530,1.000,117.91,1.26e+02,2,,1.97e+02,2.24e+00,1,1.60e+01
"1/0366503923.46336",2014-12-12T22:38:47.702,13895,461.00,84.04,83.96,"22:05:17",308.36,-0.520,1.000,117.48,1.29e+02,2,,2.06e+02,2.29e+00,1,1.56e+01
"1/0366503931.16386",2014-12-12T22:38:55.245,13895,457.00,84.43,84.36,"07:20:02",305.94,-0.510,1.000,117.06,1.34e+02,2,,2.24e+02,2.33e+00,1,1.53e+01
"1/0366503938.51972",2014-12-12T22:39:02.788,13895,454.00,84.81,84.75,"17:57:17",303.16,-0.510,1.010,116.63,1.28e+02,2,,2.03e+02,2.33e+00,1,1.53e+01
"1/0366503946.22022",2014-12-12T22:39:10.331,13895,450.00,85.18,85.12,"06:15:22",299.94,-0.500,1.010,116.20,1.12e+02,2,,1.56e+02,2.24e+00,1,1.59e+01
"1/0366503953.57608",2014-12-12T22:39:17.874,13895,447.00,85.53,85.47,"20:34:56",296.19,-0.490,1.010,115.76,1.11e+02,2,,1.53e+02,2.33e+00,2,1.53e+01
"1/0366503961.27724",2014-12-12T22:39:25.418,13895,444.00,85.86,85.81,"13:18:53",291.81,-0.480,1.020,115.33,1.10e+02,2,,1.51e+02,2.41e+00,2,1.48e+01
"1/0366503968.63310",2014-12-12T22:39:32.961,13895,440.00,86.16,86.11,"08:50:07",286.70,-0.470,1.020,114.90,1.02e+02,2,,1.29e+02,2.38e+00,2,1.50e+01
"1/0366503976.33360",2014-12-12T22:39:40.504,13895,437.00,86.42,86.38,"07:29:18",280.77,-0.460,1.020,114.46,9.47e+01,2,,1.11e+02,2.29e+00,2,1.56e+01
"1/0366503984.03410",2014-12-12T22:39:48.047,13895,434.00,86.64,86.60,"09:30:10",273.96,-0.460,1.020,114.03,1.02e+02,2,,1.29e+02,2.20e+00,2,1.62e+01
"1/0366503991.38996",2014-12-12T22:39:55.590,13895,432.00,86.81,86.77,"14:43:32",266.31,-0.450,1.030,113.59,1.04e+02,2,,1.34e+02,2.20e+00,1,1.62e+01
"1/0366503999.09111",2014-12-12T22:40:03.134,13895,429.00,86.91,86.87,"22:37:20",257.96,-0.440,1.030,113.15,9.65e+01,2,,1.15e+02,2.03e+00,2,1.76e+01
"1/0366504006.44697",2014-12-12T22:40:10.677,13895,426.00,86.95,86.91,"08:00:31",249.22,-0.430,1.030,112.71,9.64e+01,2,,1.15e+02,1.94e+00,2,1.84e+01
"1/0366504014.14747",2014-12-12T22:40:18.220,13895,423.00,86.91,86.87,"17:23:42",240.48,-0.420,1.030,112.27,9.27e+01,2,,1.07e+02,1.97e+00,2,1.81e+01
"1/0366504021.50333",2014-12-12T22:40:25.763,13895,421.00,86.80,86.76,"01:19:48",232.12,-0.420,1.040,111.83,9.56e+01,2,,1.13e+02,1.94e+00,2,1.84e+01
"1/0366504029.20384",2014-12-12T22:40:33.306,13895,419.00,86.63,86.59,"06:37:45",224.45,-0.410,1.040,111.39,9.15e+01,2,,1.04e+02,1.96e+00,2,1.83e+01
"1/0366504036.56035",2014-12-12T22:40:40.850,13895,416.00,86.41,86.36,"08:40:54",217.63,-0.400,1.040,110.95,9.36e+01,2,,1.09e+02,1.96e+00,2,1.82e+01
"1/0366504044.26085",2014-12-12T22:40:48.393,13895,414.00,86.14,86.09,"07:24:40",211.68,-0.390,1.040,110.51,1.06e+02,2,,1.39e+02,1.97e+00,2,1.81e+01
"1/0366504051.61671",2014-12-12T22:40:55.936,13895,412.00,85.83,85.78,"03:00:30",206.55,-0.380,1.050,110.07,1.18e+02,2,,1.73e+02,1.93e+00,2,1.85e+01
"1/0366504059.31721",2014-12-12T22:41:03.479,13895,410.00,85.49,85.44,"19:46:44",202.16,-0.370,1.050,109.62,1.21e+02,2,,1.82e+02,1.97e+00,2,1.81e+01
"1/0366504067.01771",2014-12-12T22:41:11.022,13895,408.00,85.13,85.07,"10:10:52",198.39,-0.360,1.050,109.18,1.16e+02,2,,1.68e+02,1.98e+00,2,1.80e+01